TimeAKST,TemperatureF,Dew PointF,Humidity,Sea Level PressureIn,VisibilityMPH,Wind Direction,Wind SpeedMPH,Gust SpeedMPH,PrecipitationIn,Events,Conditions,WindDirDegrees,DateUTC
12:53 AM,51.1,42.1,71,30.33,10.0,SSW,16.1,24.2,N/A,,Overcast,200,2014-01-24 09:53:00
1:53 AM,51.1,41.0,68,30.34,10.0,SSW,13.8,24.2,N/A,,Overcast,200,2014-01-24 10:53:00
2:53 AM,52.0,39.9,63,30.35,10.0,South,13.8,20.7,N/A,,Overcast,190,2014-01-24 11:53:00
3:53 AM,51.1,39.9,66,30.35,10.0,SSW,17.3,26.5,N/A,,Overcast,210,2014-01-24 12:53:00
4:53 AM,50.0,37.9,63,30.34,10.0,SSW,13.8,-,N/A,,Partly Cloudy,210,2014-01-24 13:53:00
5:53 AM,48.9,37.9,66,30.34,10.0,SSW,19.6,-,N/A,,Scattered Clouds,210,2014-01-24 14:53:00
6:53 AM,44.1,36.0,73,30.35,10.0,SW,18.4,-,N/A,,Scattered Clouds,220,2014-01-24 15:53:00
7:53 AM,44.1,37.0,76,30.36,10.0,WSW,15.0,-,N/A,,Clear,240,2014-01-24 16:53:00
8:53 AM,43.0,37.0,80,30.37,10.0,Calm,Calm,-,N/A,,Clear,0,2014-01-24 17:53:00
9:53 AM,42.1,37.0,82,30.37,10.0,North,3.5,-,N/A,,Clear,360,2014-01-24 18:53:00
10:53 AM,42.1,37.0,82,30.40,10.0,Calm,Calm,-,N/A,,Clear,0,2014-01-24 19:53:00
11:53 AM,43.0,37.0,80,30.40,10.0,NE,3.5,-,N/A,,Clear,40,2014-01-24 20:53:00
12:53 PM,45.0,37.9,76,30.40,10.0,Calm,Calm,-,N/A,,Clear,0,2014-01-24 21:53:00
1:53 PM,44.1,36.0,73,30.40,10.0,NE,5.8,-,N/A,,Clear,40,2014-01-24 22:53:00
2:53 PM,43.0,36.0,76,30.40,10.0,NNE,3.5,-,N/A,,Clear,30,2014-01-24 23:53:00
3:53 PM,39.9,34.0,79,30.40,10.0,NE,4.6,-,N/A,,Clear,50,2014-01-25 00:53:00
4:53 PM,37.9,34.0,86,30.40,10.0,Calm,Calm,-,N/A,,Clear,0,2014-01-25 01:53:00
5:53 PM,36.0,32.0,86,30.40,10.0,Calm,Calm,-,N/A,,Clear,0,2014-01-25 02:53:00
6:53 PM,35.1,32.0,89,30.40,10.0,Calm,Calm,-,N/A,,Clear,0,2014-01-25 03:53:00
7:53 PM,33.1,30.0,89,30.40,10.0,ENE,4.6,-,N/A,,Clear,60,2014-01-25 04:53:00
8:53 PM,33.1,30.0,89,30.38,10.0,Calm,Calm,-,N/A,,Clear,0,2014-01-25 05:53:00
9:53 PM,33.1,30.9,92,30.39,10.0,Calm,Calm,-,N/A,,Clear,0,2014-01-25 06:53:00
10:53 PM,33.1,30.0,89,30.40,10.0,NNE,4.6,-,N/A,,Clear,30,2014-01-25 07:53:00
11:53 PM,34.0,32.0,92,30.38,10.0,Calm,Calm,-,N/A,,Clear,0,2014-01-25 08:53:00